Regional Weather Roundup
Issued by NWS New Orleans/Baton Rouge, LA

Home | Current Version | Previous Version | Graphics & Text | Print | Product List | Glossary On
Versions: 1 2 3 4 5 6 7 8 9 10 11 12 13 14 15 16 17 18 19 20 21 22 23 24 25 26 27 28 29 30 31 32 33 34 35 36 37 38 39 40 41 42 43 44 45 46 47 48 49 50
568
ASUS44 KLIX 301610
RWRLIX
NEW ORLEANS REGIONAL WEATHER ROUNDUP
NATIONAL WEATHER SERVICE NEW ORLEANS LA
1100 AM CDT WED JUL 30 2014

NOTE: "FAIR" INDICATES FEW OR NO CLOUDS BELOW 12,000 FEET WITH NO
      SIGNIFICANT WEATHER AND/OR OBSTRUCTIONS TO VISIBILITY.
      SKY/WX - SKY CONDITION AND SIGNIFICANT WEATHER.
      TMP - AIR TEMPERATURE.     DP    - DEWPOINT TEMPERATURE.
      RH  - RELATIVE HUMIDITY.   PRES  - PRESSURE.
      HI  - HEAT INDEX.          WCI   - WIND CHILL INDEX.

*  THESE STATIONS ARE NOT NWS OR FAA STATIONS AND ARE NOT UNDER
   NWS QUALITY CONTROL.

LAZ038-040-048-061>063-065>067-069-301700-
SOUTHEAST LOUISIANA

CITY           SKY/WX    TMP DP  RH WIND       PRES   REMARKS
N.O. AUDUBON     N/A     88  62  41 MISG        N/A
N.O. INTL ARPT   N/A     84  62  47 NE10      30.08R
N.O. LAKEFRONT   N/A     80  59  48 NE8       30.09R
N.O. DOWNTOWN* PTSUNNY   82  57  42 N3        30.08S
SLIDELL          N/A     81  59  47 VRB6      30.08S
BATON ROUGE      N/A     81  61  50 E7        30.10S
BOOTHVILLE       N/A     83  69  62 NE7       30.07R
BELLE CHASSE     N/A     82  63  52 E5        30.07S
BOGALUSA*        N/A     80  60  49 NE6       30.11S
GALLIANO*      NOT AVBL
NEW ROADS*       N/A     79  63  56 NE6       30.10S
GONZALES*        N/A     80  64  58 CALM      30.08S
HAMMOND*         N/A     82  57  42 NE3       30.11R
HOUMA*         SUNNY     84  64  51 N7        30.07S
PORT FOURCHON* SUNNY     84  72  65 NE8       30.08S

$$

MSZ070-080>082-301700-
SOUTHERN MISSISSIPPI

CITY           SKY/WX    TMP DP  RH WIND       PRES   REMARKS
MCCOMB           N/A     77  56  48 E6        30.11S
GULFPORT         N/A     85  57  38 N7        30.07S
BILOXI           N/A     81  59  46 NE6       30.07S
PASCAGOULA       N/A     81  59  47 VRB6      30.07S

$$

COASTAL OBSERVATIONS
LAKE AND NEARSHORE STATIONS

STATION/POSITION TIME  TEMP    WIND        PRES    WAVE
                       AIR SEA DIR/SP/G            HT/PER
                 (UTC) (F)     (DEG/KT/KT) (MB)    (FT/S)
PASCAGOULA       1600   82     350/  3/  8 1017.6
WAVELAND YACHT   1600   77      10/  2/  5 1017.9
GRAND ISLE       1600   84 86   40/  4/  8 1018.6
SOUTHWEST PASS   1600   86 84   70/  7/  9 1018.1
NEW CANAL        1600   78 82   60/  7/  8 1019.1
SHELL BEACH      1600   78 80   30/  8/  9 1018.3

OFFSHORE STATIONS

STATION/POSITION TIME  TEMP    WIND        PRES    WAVE
                       AIR SEA DIR/SP/G            HT/PER
                 (UTC) (F)     (DEG/KT/KT) (MB)    (FT/S)
64 S DAUPHIN ISL 1539   81 86   30/ 10/ 12 1017.7

$$




USA.gov is the U.S. government's official web portal to all federal, state and local government web resources and services.